Regional Weather Roundup
Issued by NWS Jackson, KY

Home | Current Version | Previous Version | Graphics & Text | Print | Product List | Glossary On
Versions: 1 2 3 4 5 6 7 8 9 10 11 12 13 14 15 16 17 18 19 20 21 22 23 24 25 26 27 28 29 30 31 32 33 34 35 36 37 38 39 40 41 42 43 44 45 46 47 48 49 50
000
ASUS43 KJKL 041810
RWRJKL

EAST KENTUCKY HOURLY WEATHER ROUNDUP
NATIONAL WEATHER SERVICE JACKSON KY
200 PM EDT TUE AUG 04 2015

NOTE: "FAIR" INDICATES FEW OR NO CLOUDS BELOW 12,000 FEET WITH
NO SIGNIFICANT WEATHER AND/OR OBSTRUCTIONS TO VISIBILITY.

* THESE REPORTS ARE NOT UNDER NWS QUALITY CONTROL AND MAY NOT
  REPORT WEATHER SUCH AS PRECIPITATION AND FOG.

KYZ079-080-083-085-087-088-110-112-115-119-120-041900
...EASTERN KENTUCKY...

CITY           SKY/WX    TMP DP  RH WIND       PRES   REMARKS
JACKSON        PTSUNNY   82  72  71 CALM      30.04F
6HR MIN TEMP:  67; 6HR MAX TEMP:  85;

LONDON         MOSUNNY   88  67  49 W8        30.03F HX  91
6HR MIN TEMP:  71; 6HR MAX TEMP:  90;

SOMERSET*      PTSUNNY   88  68  51 SW8G17    30.03F HX  91
MONTICELLO*    MOSUNNY   90  72  55 CALM      30.05F HX  97
6HR MIN TEMP:  70; 6HR MAX TEMP:  90;

WILLIAMSBURG*  MOSUNNY   86  73  66 SW5       30.04S HX  93
MIDDLESBORO*   MOSUNNY   89  68  50 SW5       30.04F HX  93
6HR MIN TEMP:  68; 6HR MAX TEMP:  91;

HAZARD APT*    MOCLDY    84  70  61 NW9       30.03F
BLACK MTN*       N/A     77  64  65 E2          N/A
PIKEVILLE APT* MOSUNNY   84  70  61 CALM      30.04F
BIG SANDY*     MOCLDY    82  71  69 W6        30.03S
6HR MIN TEMP:  69; 6HR MAX TEMP:  83;

MOREHEAD APT*  MOCLDY    82  68  61 SW7       30.03S
$$

KYZ035-036-041-042-044-050-067-078-099-041900
...CENTRAL KENTUCKY...

CITY           SKY/WX    TMP DP  RH WIND       PRES   REMARKS
MT STERLING*   CLOUDY    82  70  65 NW8       30.03S
FLEMING/MASON* PTSUNNY  N/A N/A N/A W12G17    30.01F
DANVILLE*      PTSUNNY   88  68  51 W10G18    30.03S HX  91
RICHMOND*      PTSUNNY   86  70  58 W9        30.01F HX  90
LEXINGTON      CLOUDY    84  69  60 W10       30.02S
6HR MIN TEMP:  71; 6HR MAX TEMP:  85;

FRANKFORT      CLOUDY    84  67  56 W7        30.00F
6HR MIN TEMP:  71; 6HR MAX TEMP:  84;

$$

KYZ091>093-OHZ055-061-077-WVZ005-015-034-035-042-041900
...SOUTHERN OHIO/WEST VIRGINIA...

CITY           SKY/WX    TMP DP  RH WIND       PRES   REMARKS
COVINGTON      PTSUNNY   83  57  41 W9        29.99F
COLUMBUS       MOSUNNY   81  55  40 S5        29.97F
DAYTON         PTSUNNY   80  56  43 NW8       30.00S
WILMINGTON     MOSUNNY   81  59  47 W10       29.99S
HUNTINGTON     PTSUNNY   84  68  58 W8        29.99S
CHARLESTON     PTSUNNY   83  66  56 W6        29.99F
PINEVILLE*     PTSUNNY   84  70  63 MISG      30.10F
BECKLEY        PTSUNNY   79  64  60 SW13G18   30.09F
BLUEFIELD      PTSUNNY   81  63  54 W10G18    30.12F
$$

VAZ002-007-008-TNZ017-027-036-066-071-041900
...SOUTHWEST VIRGINIA/EAST TENNESSEE...

CITY           SKY/WX    TMP DP  RH WIND       PRES   REMARKS
WISE*          PTSUNNY   86  59  39 W9        30.13F
ABINGDON*      MOSUNNY   87  65  47 W10       30.09F
BRISTOL        MOSUNNY   90  64  42 VRB7      30.06F HX  91
KNOXVILLE      PTSUNNY   90  68  48 CALM      30.03  HX  94
OAK RIDGE      PTSUNNY   91  70  49 VRB5      30.04F HX  96
CROSSVILLE     MOSUNNY   86  65  49 NW7       30.10F
NASHVILLE      PTSUNNY   94  64  37 SW8       30.01F HX  95
$$

...KEY TO REMARKS...
VSB - VISIBILITY IN MILES
WCI - WIND CHILL INDEX
HX  - HEAT INDEX

$$


USA.gov is the U.S. government's official web portal to all federal, state and local government web resources and services.